Location: Brede
(50.9167°N, 0.6000°E)
Time: 02:21:11
(UTC+00:00)

PSLV R/B - Pass Details

Date: 08 August 2020
Orbit: 598 x 701 km, 97.9° (Epoch: 27 September)

Event Time Altitude Azimuth Distance (km) Brightness Sun altitude
Rises 01:07:09 0° 9° (N) 3,020 8.6 -21.6°
Reaches altitude 10° 01:09:25 10° 3° (N) 2,117 7.4 -21.5°
Maximum altitude 01:13:51 46° 291° (WNW) 927 4.4 -21.3°
Enters shadow 01:15:03 37° 252° (WSW) 1,065 4.4 -21.2°
